User: anonymous   Login
Location: Caltech
(34.1382°N, 118.1253°W)
Time: 07:50:38
(UTC-07:00)
Language:

PAYLOAD A - Orbit

View from above orbital plane
View from above orbital plane
View from above satellite
View from above satellite

Ground track
Ground track

The orbit data is extracted from the following two-line orbital elements,

1 27840U 03031A   15244.67525659 -.00000004  00000-0  12601-4 0  9998
2 27840  98.2060 259.8518 0097142 292.5447 176.1691 14.38819636639190
Epoch (UTC): 01 September 2015 16:12:22
Eccentricity: 0.0097142
inclination: 98.2060°
perigee height: 693 km
apogee height: 832 km
right ascension of ascending node: 259.8518°
argument of perigee: 292.5447°
revolutions per day: 14.38819636
mean anomaly at epoch: 176.1691°
orbit number at epoch: 63919

The dashed part of the orbit path shows where the satellite is in the earth's shadow,  

DLR